Regional Weather Roundup
Issued by NWS Upton, NY

Current Version | Previous Version | Graphics & Text | Print | Product List | Glossary Off
Versions: 1 2 3 4 5 6 7 8 9 10 11 12 13 14 15 16 17 18 19 20 21 22 23 24 25 26 27 28 29 30 31 32 33 34 35 36 37 38 39 40 41 42 43 44 45 46 47 48 49

000
ASUS41 KOKX 031308
RWROKX

REGIONAL WEATHER ROUNDUP
NATIONAL WEATHER SERVICE NEW YORK NY
900 AM EDT SUN MAY 03 2015

NOTE: "FAIR" INDICATES FEW OR NO CLOUDS BELOW 12,000 FEET WITH NO
SIGNIFICANT WEATHER AND/OR OBSTRUCTIONS TO VISIBILITY.

NYZ071-072-176-178-NJZ106-104-031400-
NEW YORK CITY METRO AREA


CITY           SKY/WX    TMP DP  RH WIND       PRES   REMARKS
CENTRAL PARK   SUNNY     58  39  49 CALM      30.11S
LAGUARDIA APRT MOSUNNY   59  40  49 CALM      30.09S
KENNEDY INTL   MOSUNNY   56  41  57 SW5       30.11R
NEWARK/LIBERTY MOSUNNY   58  41  53 VRB3      30.09S
BRNX BOT. GARD   N/A     59  39  47 W2        30.10F
TETERBORO      SUNNY     58  40  51 CALM      30.08S
$$

NYZ177-179-078>081-031400-
LONG ISLAND NEW YORK

CITY           SKY/WX    TMP DP  RH WIND       PRES   REMARKS
FARMINGDALE    SUNNY     57  42  57 W7        30.09S
ISLIP          MOSUNNY   57  42  57 S7        30.08S
SHIRLEY        SUNNY     58  36  43 SW9       30.10S
WESTHAMPTON    SUNNY     56  39  53 SW7       30.11R
MONTAUK POINT    N/A     56  43  61 VRB5      30.10S
$$

NYZ052-065-067-031400-
HUDSON VALLEY

CITY           SKY/WX    TMP DP  RH WIND       PRES   REMARKS
WHITE PLAINS   SUNNY     57  41  55 CALM      30.08R
NEWBURGH       SUNNY     59  46  63 NW5       30.09R
MONTGOMERY     SUNNY     59  45  59 CALM      30.07S
POUGHKEEPSIE   SUNNY     58  43  57 W6        30.08S
ALBANY         MOSUNNY   59  42  53 S5        30.07S
$$

NJZ001-105-106-008-010-013-015-019>022-104-031400-
NEW JERSEY

CITY           SKY/WX    TMP DP  RH WIND       PRES   REMARKS
NEWARK/LIBERTY MOSUNNY   58  41  53 VRB3      30.09S
TETERBORO      SUNNY     58  40  51 CALM      30.08S
CALDWELL       MOSUNNY   55  42  61 CALM      30.09S
MORRISTOWN     NOT AVBL
SOMERVILLE     SUNNY     57  43  59 CALM      30.07S
SUSSEX         MOSUNNY   58  45  62 SW3       30.10S
ANDOVER          N/A     59  45  59 CALM      30.10R
TRENTON        SUNNY     55  43  63 W3        30.09R
MILLVILLE      MOSUNNY   54  48  80 CALM      30.10R
ATLANTIC CITY  CLOUDY    58  47  66 CALM      30.10R
WRIGHTSTOWN    SUNNY     58  46  64 W3        30.07S
TOMS RIVER     SUNNY     57  45  62 CALM      30.10R
BELMAR         SUNNY     55  41  58 CALM      30.10R
$$

PAZ047>061-062-071-031400-
EASTERN PENNSYLVANIA

CITY           SKY/WX    TMP DP  RH WIND       PRES   REMARKS
PHILADELPHIA   PTSUNNY   58  45  62 CALM      30.11R
ALLENTOWN      SUNNY     57  47  69 CALM      30.10R
SCRANTON       SUNNY     58  35  42 CALM      30.11R
$$

CTZ002-004>006-009-010-012-RIZ004-006-007-MAZ004-011-015-031400-
SOUTHERN NEW ENGLAND
 IN CT

CITY           SKY/WX    TMP DP  RH WIND       PRES   REMARKS
BRADLEY INTL   MOSUNNY   56  39  53 CALM      30.06S
HARTFORD       SUNNY     56  40  55 S3        30.07S
DANBURY        SUNNY     56  40  55 SW3       30.09R
WTRBRY/OXFORD  SUNNY     55  39  54 NW5       30.09R
BRIDGEPORT     SUNNY     53  44  71 SW9       30.09R
MERIDEN        SUNNY     56  40  55 SE6       30.08S
NEW HAVEN      SUNNY     51  44  77 S6        30.08S
CHESTER        FAIR      54  39  58 SW6       30.08S
GROTON         SUNNY     52  39  61 SW12      30.09R
WILLIMANTIC    PTSUNNY   52  38  58 CALM      30.08R

 IN RI

CITY           SKY/WX    TMP DP  RH WIND       PRES   REMARKS
PROVIDENCE     PTSUNNY   54  36  50 VRB6      30.08R
BLOCK ISLAND   SUNNY     54  39  58 W10       30.10R
WESTERLY       MOSUNNY   53  39  59 SW9       30.10R

 IN MA

CITY           SKY/WX    TMP DP  RH WIND       PRES   REMARKS
BOSTON         PTSUNNY   55  41  59 CALM      30.06S
WORCESTER      MOSUNNY   57  39  51 W5        30.05S
WESTFIELD      SUNNY     56  40  55 CALM      30.06S
PROVINCETOWN   SUNNY     52  43  71 S12       30.09R
NANTUCKET      SUNNY     48  41  76 S8        30.11S
$$

ANZ330-335-338-340-345-350-353-355-031400-
COASTAL MARINE OBSERVATIONS


STATION/POSITION TIME  SKY/WX   TEMP    WIND        PRES    VSBY  WAVE
                                AIR SEA DIR/SP/G                  HT/PER
                 (UTC)          (F)     (DEG/KT/KT) (MB)    (MI)  (FT/S)
NY HARB ENTRANCE 1250            50 50  200/  6/  6 1018.9          5/ 8
4S FIRE IS       1203               47                N/A           4/ 8
20S FIRE ISLAND  1250            47 46  170/  4/  4 1019.7          4/ 9
GREAT SOUTH BAY  1230            51 56  230/  6/  6   N/A
23SW MTP         1250            45 44  210/  6/  6 1019.3          4/ 8
HUDSON CANYON    NOT AVBL
EXECUTION ROCKS  NOT AVBL
WESTERN LI SOUND NOT AVBL
CENTRAL LI SOUND NOT AVBL
EASTERN LI SOUND 1200            49     210/  4/  4   N/A
ROBBINS REEF     1200            51     260/  5/  5 1017.9
$$


>>>>>>>>>>>>>>>>>>>>>>>>>>>> KEY <<<<<<<<<<<<<<<<<<<<<<<<<<<
>                                                          <
>     SKY/WX - SKY CONDITION/PRESENT WEATHER               <
>     TMP    - TEMPERATURE IN FAHRENHEIT                   <
>     DP     - DEWPOINT IN FAHRENHEIT                      <
>     RH     - RELATIVE HUMIDITY IN PERCENT                <
>     WIND   - DIRECTION AND SPEED IN MPH                  <
>     PRES   - MEAN SEA LEVEL PRESSURE IN INCHES OF HG     <
>     WCI    - WIND CHILL INDEX                            <
>     VSB    - VISIBILITY IN MILES                         <
>     HX     - HEAT INDEX                                  <
>     TC     - TEMPERATURE IN CELSIUS                      <
>     VRB    - VARIABLE WIND DIRECTION                     <
>                                                          <
>>>>>>>>>>>>>>>>>>>>>>>>>>>> KEY <<<<<<<<<<<<<<<<<<<<<<<<<<<




USA.gov is the U.S. government's official web portal to all federal, state and local government web resources and services.